TimeSAST,TemperatureF,Dew PointF,Humidity,Sea Level PressureIn,VisibilityMPH,Wind Direction,Wind SpeedMPH,Gust SpeedMPH,PrecipitationIn,Events,Conditions,WindDirDegrees,DateUTC
12:00 AM,51.8,46.4,82,29.92,-9999.0,NNW,3.5,-,N/A,,Clear,340,2013-08-25 22:00:00
1:00 AM,51.8,46.4,82,29.92,-9999.0,NNW,4.6,-,N/A,,Clear,330,2013-08-25 23:00:00
2:00 AM,51,45,74,29.90,12,NW,4.6,,,,,310,2013-08-26 00:00:00
2:00 AM,51.8,46.4,82,29.89,-9999.0,NNW,4.6,-,N/A,,Clear,330,2013-08-26 00:00:00
3:00 AM,53.6,46.4,77,29.83,-9999.0,NW,4.6,-,N/A,,Clear,320,2013-08-26 01:00:00
4:00 AM,51.8,44.6,76,29.80,-9999.0,NNE,4.6,-,N/A,,Clear,20,2013-08-26 02:00:00
5:00 AM,53.6,46.4,77,29.77,-9999.0,North,4.6,-,N/A,,Clear,360,2013-08-26 03:00:00
6:00 AM,53.6,44.6,72,29.77,-9999.0,WNW,4.6,-,N/A,,Clear,290,2013-08-26 04:00:00
7:00 AM,57.2,44.6,63,29.77,-9999.0,West,6.9,-,N/A,,Clear,280,2013-08-26 05:00:00
8:00 AM,57,44,52,29.84,19,WNW,9.2,,,,Mostly Cloudy,300,2013-08-26 06:00:00
8:00 AM,57.2,42.8,59,29.83,-9999.0,WNW,9.2,-,N/A,,Clear,290,2013-08-26 06:00:00
9:00 AM,59.0,46.4,63,29.89,-9999.0,West,5.8,-,N/A,,Clear,260,2013-08-26 07:00:00
10:00 AM,66.2,44.6,46,29.89,-9999.0,SW,15.0,-,N/A,,Clear,220,2013-08-26 08:00:00
11:00 AM,62.6,48.2,59,29.92,-9999.0,SW,11.5,-,N/A,,Clear,230,2013-08-26 09:00:00
12:00 PM,64.4,50.0,59,29.89,-9999.0,SW,12.7,-,N/A,,Clear,220,2013-08-26 10:00:00
1:00 PM,64.4,53.6,68,29.89,-9999.0,South,6.9,-,N/A,,Clear,190,2013-08-26 11:00:00
2:00 PM,62,54,68,29.89,12,SSW,10.4,,,,Scattered Clouds,200,2013-08-26 12:00:00
2:00 PM,62.6,53.6,72,29.89,6.2,SSW,10.4,-,N/A,,Partly Cloudy,200,2013-08-26 12:00:00
3:00 PM,62.6,53.6,72,29.86,6.2,SSW,9.2,-,N/A,,Partly Cloudy,200,2013-08-26 13:00:00
4:00 PM,60.8,53.6,77,29.86,6.2,South,6.9,-,N/A,,Partly Cloudy,190,2013-08-26 14:00:00
5:00 PM,58,53,80,29.88,12,South,8.1,,,,Scattered Clouds,190,2013-08-26 15:00:00
5:00 PM,59.0,53.6,82,29.86,6.2,South,8.1,-,N/A,,Partly Cloudy,190,2013-08-26 15:00:00
6:00 PM,57.2,51.8,82,29.89,6.2,South,5.8,-,N/A,,Mostly Cloudy,190,2013-08-26 16:00:00
7:00 PM,57.2,51.8,82,29.89,6.2,South,4.6,-,N/A,,Mostly Cloudy,190,2013-08-26 17:00:00
8:00 PM,56,52,83,29.91,12,South,2.3,,,,Mostly Cloudy,170,2013-08-26 18:00:00
8:00 PM,57.2,51.8,82,29.89,6.2,South,2.3,-,N/A,,Mostly Cloudy,170,2013-08-26 18:00:00
9:00 PM,57.2,53.6,88,29.92,6.2,WSW,5.8,-,N/A,,Overcast,240,2013-08-26 19:00:00
10:00 PM,55.4,51.8,88,29.92,4.3,SSW,2.3,-,N/A,,Overcast,210,2013-08-26 20:00:00
11:00 PM,55.4,51.8,88,29.92,3.7,ENE,3.5,-,N/A,,Overcast,70,2013-08-26 21:00:00